Belmar-Farmingdale, NJ

3:50 PM EST on December 06, 2019 (GMT -0500)
Allaire

Weather History for KBLM - October, 2019

Change the Weather History Date:

Tuesday, October 1, 2019

  Actual Average Record
Temperature  
Mean Temperature 71 °F -  
Max Temperature 82 °F 66 °F 80 °F (2013)
Min Temperature 60 °F 50 °F 44 °F (1999)
Cooling Degree Days 6    
Growing Degree Days 21 (Base 50)    
Moisture  
Dew Point 61 °F    
Average Humidity 76    
Maximum Humidity 90    
Minimum Humidity 56    
Precipitation  
Precipitation 0.00 in - - ()
Sea Level Pressure  
Sea Level Pressure 30.10 in    
Wind  
Wind Speed 5 mph ()    
Max Wind Speed 14 mph    
Max Gust Speed 17 mph    
Visibility 10.0 miles    
Events Rain    
Averages and records for this station are not official NWS values.
T = Trace of Precipitation, MM = Missing Value Source: Averaged Metar Reports

Daily Weather History Graph

Daily Weather History Graph

Search for Another Location

Airport or City:

Astronomy

Oct. 01, 2019 Rise Set
Actual Time 6:52 AM EDT 6:39 PM EDT
Civil Twilight 6:25 AM EDT 7:06 PM EDT
Nautical Twilight 5:54 AM EDT 7:37 PM EDT
Astronomical Twilight 5:22 AM EDT 8:09 PM EDT
Moon 10:05 AM EDT (10/1) 8:50 PM EDT (10/1)
Length of Visible Light 12h 40m
Length of Day
11h 46m
Waxing Crescent, 12% of the Moon is Illuminated
Oct 1
Waxing Crescent
Oct 5
First Quarter
Oct 13
Full
Oct 21
Last Quarter
Oct 27
New

Hourly Weather History & Observations

Time (EDT) Temp. Heat Index Dew Point Humidity Pressure Visibility Wind Dir Wind Speed Gust Speed Precip Events Conditions
12:56 AM 61.0 °F - 57.0 °F 87% 30.22 in 9.0 mi Variable 3.5 mph - 0.00 in Rain Light Rain
1:38 AM 60.8 °F - 57.2 °F 88% 30.20 in 10.0 mi SE 4.6 mph - 0.00 in   Overcast
1:56 AM 61.0 °F - 57.9 °F 90% 30.20 in 10.0 mi Calm Calm - 0.00 in   Overcast
2:04 AM 60.8 °F - 57.2 °F 88% 30.19 in 10.0 mi South 3.5 mph - N/A   Overcast
2:56 AM 61.0 °F - 57.9 °F 90% 30.19 in 10.0 mi Calm Calm - N/A   Overcast
3:56 AM 63.0 °F - 57.9 °F 84% 30.19 in 10.0 mi Calm Calm - N/A   Overcast
4:56 AM 61.0 °F - 57.9 °F 90% 30.18 in 10.0 mi Calm Calm - N/A   Overcast
5:56 AM 62.1 °F - 57.9 °F 86% 30.17 in 10.0 mi SSW 3.5 mph - N/A   Overcast
6:56 AM 62.1 °F - 59.0 °F 90% 30.17 in 10.0 mi SW 4.6 mph - N/A   Overcast
7:05 AM 62.6 °F - 59.0 °F 88% 30.16 in 10.0 mi SW 5.8 mph - N/A   Overcast
7:56 AM 63.0 °F - 60.1 °F 90% 30.15 in 10.0 mi South 4.6 mph - N/A   Overcast
8:56 AM 66.9 °F - 60.1 °F 79% 30.16 in 10.0 mi SW 9.2 mph - N/A   Mostly Cloudy
9:19 AM 66.2 °F - 60.8 °F 83% 30.15 in 10.0 mi SSW 6.9 mph - N/A   Mostly Cloudy
9:56 AM 69.1 °F - 60.1 °F 73% 30.15 in 10.0 mi SW 8.1 mph - N/A   Overcast
10:23 AM 71.6 °F - 60.8 °F 69% 30.14 in 10.0 mi SW 10.4 mph 16.1 mph N/A   Partly Cloudy
10:56 AM 73.0 °F - 60.1 °F 64% 30.13 in 10.0 mi SW 13.8 mph - N/A   Scattered Clouds
11:05 AM 73.4 °F - 60.8 °F 65% 30.13 in 10.0 mi WSW 10.4 mph - N/A   Mostly Cloudy
11:14 AM 73.4 °F - 60.8 °F 65% 30.13 in 10.0 mi SSW 8.1 mph - N/A   Partly Cloudy
11:43 AM 71.6 °F - 60.8 °F 69% 30.12 in 10.0 mi WSW 8.1 mph - N/A   Mostly Cloudy
11:56 AM 73.0 °F - 61.0 °F 66% 30.11 in 10.0 mi Variable 6.9 mph - N/A   Overcast
12:56 PM 75.9 °F - 62.1 °F 62% 30.09 in 10.0 mi SW 8.1 mph - N/A   Mostly Cloudy
1:05 PM 77.0 °F - 62.6 °F 61% 30.09 in 10.0 mi SW 9.2 mph - N/A   Scattered Clouds
1:56 PM 78.1 °F - 64.0 °F 62% 30.05 in 10.0 mi WSW 11.5 mph - N/A   Clear
2:56 PM 81.0 °F 82.5 °F 64.0 °F 56% 30.02 in 10.0 mi SW 9.2 mph - N/A   Clear
3:56 PM 82.0 °F 83.8 °F 64.9 °F 56% 30.01 in 10.0 mi SSW 9.2 mph - N/A   Clear
4:56 PM 81.0 °F 83.0 °F 66.0 °F 60% 29.99 in 10.0 mi SSW 9.2 mph - N/A   Clear
5:56 PM 79.0 °F - 66.0 °F 64% 29.99 in 10.0 mi SW 6.9 mph - N/A   Clear
6:56 PM 75.9 °F - 66.0 °F 71% 29.98 in 10.0 mi SSW 6.9 mph - N/A   Clear
7:56 PM 73.0 °F - 66.0 °F 79% 29.98 in 10.0 mi South 6.9 mph - N/A   Clear
8:56 PM 71.1 °F - 64.0 °F 78% 29.99 in 10.0 mi SSW 8.1 mph - N/A   Clear
9:56 PM 70.0 °F - 63.0 °F 78% 29.99 in 10.0 mi SSW 8.1 mph 17.3 mph N/A   Clear
10:56 PM 69.1 °F - 64.0 °F 84% 29.96 in 10.0 mi SSW 8.1 mph - N/A   Clear
11:56 PM 69.1 °F - 64.9 °F 87% 29.94 in 10.0 mi SSW 8.1 mph - N/A   Clear